Regional Weather Roundup
Issued by NWS Grand Forks, ND

Home | Current Version | Previous Version | Text Only | Print | Product List | Glossary On
Versions: 1 2 3 4 5 6 7 8 9 10 11 12 13 14 15 16 17 18 19 20 21 22 23 24 25 26 27 28 29 30 31 32 33 34 35 36 37 38 39 40 41 42 43 44 45 46 47 48 49 50
000
ASUS43 KFGF 211331
RWRFGF
PRAIRIE TO PINES  WEATHER ROUNDUP
NATIONAL WEATHER SERVICE EASTERN NORTH DAKOTA/GRAND FORKS ND
700 AM CST TUE NOV 21 2017

 **SATELLITE DATA USED TO AUGMENT SKY COVER AT AUTOMATED STATIONS**
 *****  WEATHER ACROSS EASTERN NORTH DAKOTA  *****

CITY           SKY/WX    TMP DP  RH WIND       PRES   REMARKS
GRAND FORKS    FAIR      13   7  77 N25G35    30.11R WCI  -7
GRAND FRKS AFB FAIR      12   5  72 N18G29    30.12R WCI  -6
DEVILS LAKE    NOT AVBL
FARGO          FAIR      16   8  71 NW18G32   30.11R WCI   0
WAHPETON ARPT  NOT AVBL
$$

 ***** WEATHER ACROSS CENTRAL AND WESTERN NORTH DAKOTA  *****

CITY           SKY/WX    TMP DP  RH WIND       PRES   REMARKS
BISMARCK       FAIR      17   5  59 NW23G35   30.27R WCI  -1
MINOT          CLOUDY     7   1  76 W18       30.25R WCI -12
JAMESTOWN      FAIR      12   6  77 NW23G31   30.13R WCI  -7
MINOT AFB      CLOUDY     6   0  78 NW20      30.24R WCI -14
GARRISON         N/A      5   0  79 NW20      30.25R WCI -15
WILLISTON      CLOUDY     4  -2  76 NW9       30.34R WCI -10
DICKINSON      FAIR       4  -1  80 W21       30.23R WCI -17
HETTINGER      FAIR       5  -2  72 NW15      30.25R WCI -13
$$

 *****  OTHER AIRPORT OBSERVATIONS IN OUR AREA  *****

CITY           SKY/WX    TMP DP  RH WIND       PRES   REMARKS
WALHALLA       FAIR      10   9  92 NW16G22   30.15R WCI  -7
GRAFTON AIRPOR CLOUDY    12   7  79 NW18G26   30.17R WCI  -5
VALLEY CITY AR FLURRIES  12   9  85 NW16G25   30.15R WCI  -4
CANDO          FAIR       9   5  85 NW14G21   30.19R WCI  -8
CAVALIER APRT    N/A     12   7  79 NW20      30.15R WCI  -6
GWINNER          N/A     14   9  79 NW20G29   30.13R WCI  -3
SHEYENNE NWR     N/A     17   7  65 N15       29.95S WCI   2
ROLLA          FAIR       7   3  85 NW22      30.16R WCI -14
 ***** THE ABOVE OBSERVATIONS ARE NON NWS ARE NOT QUALITY
       CONTROLLED AND MAY MIS-REPORT RAIN FOR SNOW...
$$

  *****  WEATHER ACROSS NORTHERN MINNESOTA  *****

CITY           SKY/WX    TMP DP  RH WIND       PRES   REMARKS
FLAG ISLAND    MOCLDY    12   7  79 NW22      29.95R WCI  -7
WARROAD        FLURRIES  12   7  79 NW18G25   29.98R WCI  -5
ROSEAU         FAIR      12   7  79 NW22G28   30.01R WCI  -7
HALLOCK        FLURRIES  12   9  85 NW18G28   30.10R WCI  -5
THF RVR FALLS  FLURRIES  11   6  81 NW24      30.03R WCI  -9
BAUDETTE       FAIR      13   7  77 NW18G33   29.93R WCI  -4
WASKISH        CLOUDY    16   9  73 NW15G21   29.93R WCI   1
CROOKSTON      FLURRIES  12   9  85 N23G36    30.11R WCI  -7
STEPHEN NDAWN    N/A     12   9  85 NW16        N/A  WCI  -4
GREENBUSH NDAW   N/A     12   7  79 NW20        N/A  WCI  -6
$$
  *****  WEATHER ACROSS CENTRAL AND WEST MINNESOTA  *****

CITY           SKY/WX    TMP DP  RH WIND       PRES   REMARKS
FOSSTON        LGT SNOW  10   7  85 NW12G24   30.02R WCI  -4
BEMIDJI        LGT SNOW  14   9  79 NW20G25   29.93R WCI  -3
PARK RAPIDS    FLURRIES  15   8  73 NW21G31   29.90R WCI  -2
ELBOW LAKE     FLURRIES  17  10  75 W29G36    30.03R WCI  -2
WADENA         FLURRIES  12   9  85 NW20G25   29.94R WCI  -6
DETROIT LAKES  FLURRIES  14  10  85 NW23G35   30.02R WCI  -5
MOORHEAD       MIX PCPN  16   9  73 NW24G30   30.10R WCI  -3
FERGUS FALLS   LGT SNOW  16  10  79 N22G33    30.07R WCI  -2
MORRIS MN      CLOUDY    19  10  68 NW32G39   30.01R WCI   0
STAPLES        FLURRIES  16   9  73 NW18G25   29.92R WCI  -1
$$
  *****  WEATHER ELSEWHERE ACROSS MINNESOTA  *****

CITY           SKY/WX    TMP DP  RH WIND       PRES   REMARKS
DULUTH         FLURRIES  19  11  70 NW20G35   29.72R WCI   3
INTRNTL FALLS  FLURRIES  16   8  71 NW21G26   29.82R WCI  -1
ELY            FLURRIES  16   9  73 NW16G26   29.69R WCI   0
CLOQUET        FLURRIES  19  10  68 NW14G24   29.75R WCI   6
WHEATON        CLOUDY    18   9  68 NW24G33   30.10R WCI   0
BRAINERD       FLURRIES  19   8  62 NW18G30   29.87R WCI   4
HIBBING        FLURRIES  17  10  74 NW26G41   29.73R WCI  -2
ALEXANDRIA     CLOUDY    18  11  74 NW26G36   29.94R WCI  -1
SAINT CLOUD    CLOUDY    20   9  62 NW24G35   29.87R WCI   3
MINNEAPOLIS    CLOUDY    27  14  58 NW24G33   29.86R WCI  12
$$

  *****  WEATHER ACROSS SOUTH DAKOTA  *****

CITY           SKY/WX    TMP DP  RH WIND       PRES   REMARKS
SIOUX FALLS    FAIR      18   8  65 NW23G33   30.07R WCI   0
BROOKINGS      MOCLDY    16   9  73 NW25G32   30.06R WCI  -3
WATERTOWN      CLOUDY    15   8  73 NW28G36   30.05R WCI  -5
HURON          FAIR      15   6  67 NW16      30.17R WCI  -1
SISSETON         N/A     17   9  70 NW30G39   30.06R WCI  -3
ABERDEEN       FAIR      13   6  74 NW20G29   30.17R WCI  -5
MITCHELL       FAIR      17   6  62 NW24G33   30.18R WCI  -1
PIERRE         FLURRIES  14   4  64 N22G32    30.23R WCI  -4
MOBRIDGE       CLOUDY    14   5  67 NW20      30.20R WCI  -3
RAPID CITY     FAIR      28  22  78 N23G35    30.19R WCI  14
$$

  *****  SOME WEATHER IN NEARBY STATES *****

CITY           SKY/WX    TMP DP  RH WIND       PRES   REMARKS
GLASGOW MT     FAIR       2  -3  80 N3        30.33S
GREAT FALLS MT MOCLDY    17  14  88 E8        30.16F WCI   7
CHEYENNE WY    CLOUDY    36  31  82 N18G26    30.15R
SCOTTSBLUFF NE CLOUDY    32  23  69 NE12      30.23R WCI  23
OMAHA NE       LGT RAIN  38  28  67 N13       29.99R
DES MOINES IA  CLOUDY    39  25  57 NW17G23   29.92R
DAVENPORT IA   CLOUDY    41  30  65 W12       29.77R
CHICAGO IL     MOCLDY    42  31  64 SW13      29.67R
EAU CLAIRE WI  CLOUDY    27  12  53 NW18G37   29.74R WCI  14
LA CROSSE WI   FAIR      33  18  53 NW21G29   29.75R WCI  21
$$

  *****  SOME NATIONAL WEATHER *****

CITY           SKY/WX    TMP DP  RH WIND       PRES   REMARKS
LA GUARDIA NY  FAIR      46  31  55 SW12      30.14R
RALEIGH NC     PTSUNNY   37  31  78 CALM      30.23R
ATLANTA GA     MOCLDY    45  38  76 E12       30.12F
NEW ORLEANS LA FAIR      53  48  83 E7        30.02S
OKLAHOMA CITY  MOCLDY    42  34  73 S5        29.83R
ALBUQUERQUE NM FAIR      45   4  18 N13       30.19R
SALT LAKE CITY MOCLDY    45  37  73 SE3       30.24S
LOS ANGELES CA MOCLDY    59  49  69 E3        30.02S
BOISE ID       MOCLDY    45  42  89 CALM      30.19R
SEATTLE WA     LGT RAIN  42  40  92 CALM      29.98F
$$

*** WEATHER ACROSS MANITOBA...SASKATCHEWAN AND ONTARIO ***
                ***ONTARIO***

CITY           SKY/WX    TMP DP  RH WIND       PRES   REMARKS
GERALDTON      LGT SNOW  14  10  85 N18G28    29.34R VSB 3/4 WCI  -3
THUNDER BAY    FLURRIES  19  12  73 NW16G29   29.53R WCI   5
SIOUX LOOKOUT  FLURRIES  10   5  79 NW13G20   29.75R WCI  -5
TORONTO        MOCLDY    43  30  61 S17G28    29.67S
BIG TROUT LK   LGT SNOW  14  10  85 NW17G24   29.65R WCI  -3
PICKLE LAKE    FLURRIES  10   7  85 NW10      29.63R WCI  -3
DRYDEN         FLURRIES  10   7  85 N12G25    29.79R WCI  -4
KENORA         LGT SNOW  10   7  85 NW16G23   29.89R DRFTSNOWWCI  -7
$$
                *** MANITOBA***

CITY           SKY/WX    TMP DP  RH WIND       PRES   REMARKS
BRANDON        CLEAR      7   1  78 NW14      30.18R WCI -10
DAUPHIN        CLOUDY     9   3  78 W18       30.20R WCI -10
ISLAND LAKE    FLURRIES  10   5  79 NW16G26   29.85R WCI  -7
PILOT MOUND      N/A      9   3  78 NW17        N/A  WCI -10
THE PAS        PTCLDY     7   1  78 W14G21    30.15R WCI -10
THOMPSON       FLURRIES  10   7  85 NW14G22   29.93R WCI  -5
WINNIPEG       PTCLDY     9   5  85 NW18G24   30.11R WCI -10
LYNN LAKE      CLEAR      1  -2  85 NW13G22   30.05R WCI -16
CHURCHILL      LGT SNOW  16  14  93 NW28G43   29.66R VSB 3/4 WCI  -4
$$
                ***SASKATCHEWAN***

CITY           SKY/WX    TMP DP  RH WIND       PRES   REMARKS
ESTEVAN        FLURRIES   5   0  78 NW16      30.27R WCI -14
KINDERSLEY     PTCLDY   -15 -20  76 SW10      30.29R WCI -35
LLOYDMINSTER   FLURRIES   0  -4  85 SW5       30.26R WCI -10
PRINCE ALBERT  MOCLDY     5   0  78 W8        30.31S WCI  -8
REGINA         CLOUDY     3  -2  78 NW13      30.29R WCI -14
YORKTON        FLURRIES  10   5  79 NW16      30.23R WCI  -7
N. BATTLEFORD  CLOUDY     0  -6  78 W6        30.33R WCI -12
LA RONGE       PTCLDY     0  -4  85 W8        30.27R WCI -15
SASKATOON      FLURRIES   1  -4  78 W7        30.33S WCI -11
SWIFT CURRENT  CLEAR     -8 -13  77 W10       30.25R WCI -26
$$
NOTE: THESE ARE AUTOMATED STATIONS WITH LIMITED QUALITY CONTROL
      "FAIR" INDICATES FEW OR NO CLOUDS BELOW 12,000 FEET WITH NO
      SIGNIFICANT WEATHER AND/OR OBSTRUCTIONS TO VISIBILITY.
      SKY/WX - SKY CONDITION AND SIGNIFICANT WEATHER.
      TMP - AIR TEMPERATURE.    DP   - DEWPOINT TEMPERATURE.
      RH  - RELATIVE HUMIDITY.  PRES - PRESSURE.
      HX  - HEAT INDEX.         WCI  - WIND CHILL INDEX.
$



USA.gov is the U.S. government's official web portal to all federal, state and local government web resources and services.